CW0146 Weather Reports


Display with metric or nautical units.
time (UTC)temp
F
wind
direction
speed
MPH
gust
MPH
rain 1hr
in
rain 24hr
in
rain mn
in
humidity
%
barometer
mb
20260906011454 91 105 2.0 3.0 0.00 0.00 0.00 52 1011.0
20260906010954 92 130 2.0 3.0 0.00 0.00 0.00 52 1011.0
20260906010454 92 109 2.0 4.0 0.00 0.00 0.00 51 1011.0
20260906005954 92 100 3.0 4.0 0.00 0.00 0.00 50 1011.0
20260906005454 93 110 2.0 2.0 0.00 0.00 0.00 50 1011.0
20260906004955 93 103 3.0 5.0 0.00 0.00 0.00 49 1011.0
20260906004455 94 140 2.0 4.0 0.00 0.00 0.00 48 1011.0
20260906003954 94 126 1.0 2.0 0.00 0.00 0.00 47 1011.0
20260906003454 94 95 2.0 5.0 0.00 0.00 0.00 46 1011.0
20260906002954 94 93 2.0 3.0 0.00 0.00 0.00 47 1011.0
20260906002454 94 120 2.0 4.0 0.00 0.00 0.00 46 1011.0
20260906001954 95 112 2.0 4.0 0.00 0.00 0.00 46 1011.0
20260906001454 95 93 2.0 4.0 0.00 0.00 0.00 45 1011.0
20260906000955 95 113 2.0 3.0 0.00 0.00 0.00 45 1011.0
20260906000455 96 114 3.0 5.0 0.00 0.00 0.00 45 1011.0
20260905235955 96 109 2.0 5.0 0.00 0.00 0.00 44 1011.0
20260905235454 97 95 3.0 4.0 0.00 0.00 0.00 43 1011.0
20260905234954 97 131 2.0 3.0 0.00 0.00 0.00 43 1011.0
20260905234454 97 97 2.0 2.0 0.00 0.00 0.00 43 1011.0
20260905233954 97 124 2.0 4.0 0.00 0.00 0.00 43 1010.0
20260905233454 97 80 2.0 3.0 0.00 0.00 0.00 41 1010.0
20260905232954 98 109 2.0 3.0 0.00 0.00 0.00 41 1010.0
20260905232454 99 104 2.0 4.0 0.00 0.00 0.00 40 1010.0
20260905231955 100 111 2.0 4.0 0.00 0.00 0.00 38 1010.0
20260905231454 100 164 3.0 6.0 0.00 0.00 0.00 36 1010.0
20260905230954 99 120 1.0 2.0 0.00 0.00 0.00 37 1010.0
20260905230454 99 119 1.0 2.0 0.00 0.00 0.00 38 1010.0
20260905225954 99 109 2.0 4.0 0.00 0.00 0.00 38 1010.0
20260905225454 99 179 2.0 3.0 0.00 0.00 0.00 38 1010.0
20260905224954 99 192 3.0 5.0 0.00 0.00 0.00 38 1010.0
20260905224454 99 182 2.0 3.0 0.00 0.00 0.00 39 1010.0
20260905223954 99 107 2.0 3.0 0.00 0.00 0.00 39 1010.0
20260905223454 99 235 1.0 3.0 0.00 0.00 0.00 38 1010.0
20260905222956 99 91 1.0 2.0 0.00 0.00 0.00 38 1010.0
20260905222454 100 152 3.0 4.0 0.00 0.00 0.00 37 1010.0
20260905221954 99 94 3.0 5.0 0.00 0.00 0.00 37 1010.0
20260905221454 99 168 2.0 3.0 0.00 0.00 0.00 39 1010.0
20260905220954 99 132 1.0 2.0 0.00 0.00 0.00 38 1011.0
20260905220454 99 92 1.0 2.0 0.00 0.00 0.00 38 1011.0
20260905215954 99 182 3.0 4.0 0.00 0.00 0.00 37 1011.0
20260905215454 100 135 1.0 2.0 0.00 0.00 0.00 38 1011.0
20260905214954 99 140 2.0 2.0 0.00 0.00 0.00 40 1011.0
20260905214454 99 145 1.0 2.0 0.00 0.00 0.00 40 1011.0
20260905213954 100 123 1.0 1.0 0.00 0.00 0.00 38 1011.0
20260905213454 99 163 1.0 2.0 0.00 0.00 0.00 40 1011.0
20260905212954 99 129 2.0 3.0 0.00 0.00 0.00 39 1011.0
20260905212454 100 110 1.0 2.0 0.00 0.00 0.00 38 1011.0
20260905211955 100 203 1.0 2.0 0.00 0.00 0.00 38 1011.0
20260905211454 99 156 1.0 2.0 0.00 0.00 0.00 40 1011.0
20260905210955 99 84 1.0 2.0 0.00 0.00 0.00 38 1011.0
20260905210454 98 88 1.0 2.0 0.00 0.00 0.00 39 1011.0
20260905205954 98 223 2.0 3.0 0.00 0.00 0.00 38 1011.0
20260905205454 98 138 2.0 2.0 0.00 0.00 0.00 40 1011.0
20260905204955 98 111 2.0 4.0 0.00 0.00 0.00 39 1011.0
20260905204454 98 126 1.0 2.0 0.00 0.00 0.00 41 1011.0
20260905203954 98 172 1.0 2.0 0.00 0.00 0.00 40 1012.0
20260905203454 98 212 2.0 4.0 0.00 0.00 0.00 39 1012.0
20260905202954 98 148 2.0 3.0 0.00 0.00 0.00 40 1012.0
20260905202455 98 172 1.0 2.0 0.00 0.00 0.00 41 1012.0
20260905201956 98 172 2.0 4.0 0.00 0.00 0.00 40 1012.0
20260905201454 97 172 2.0 4.0 0.00 0.00 0.00 42 1012.0
20260905200954 96 154 2.0 2.0 0.00 0.00 0.00 42 1012.0
20260905200455 95 144 2.0 4.0 0.00 0.00 0.00 44 1012.0
20260905195954 95 85 2.0 4.0 0.00 0.00 0.00 44 1012.0
20260905195455 94 124 1.0 2.0 0.00 0.00 0.00 48 1012.0
20260905194954 94 200 2.0 3.0 0.00 0.00 0.00 45 1012.0
20260905194454 95 150 1.0 2.0 0.00 0.00 0.00 47 1012.0
20260905193954 95 130 1.0 2.0 0.00 0.00 0.00 46 1012.0
20260905193454 95 133 1.0 2.0 0.00 0.00 0.00 46 1012.0
20260905192955 94 97 1.0 1.0 0.00 0.00 0.00 47 1013.0
20260905192454 95 80 1.0 1.0 0.00 0.00 0.00 47 1013.0
20260905191955 96 291 2.0 3.0 0.00 0.00 0.00 44 1013.0
20260905191454 96 225 2.0 3.0 0.00 0.00 0.00 46 1013.0
20260905190954 96 183 2.0 4.0 0.00 0.00 0.00 44 1013.0
20260905190454 95 211 3.0 5.0 0.00 0.00 0.00 44 1013.0
20260905185954 95 204 2.0 3.0 0.00 0.00 0.00 47 1013.0
20260905185454 95 171 2.0 4.0 0.00 0.00 0.00 46 1013.0
20260905184954 95 157 2.0 4.0 0.00 0.00 0.00 47 1013.0
20260905184454 94 209 2.0 3.0 0.00 0.00 0.00 48 1013.0
20260905183954 94 176 3.0 4.0 0.00 0.00 0.00 48 1013.0
20260905183454 94 186 2.0 4.0 0.00 0.00 0.00 48 1014.0
20260905182954 94 195 1.0 2.0 0.00 0.00 0.00 47 1014.0
20260905182455 93 216 2.0 4.0 0.00 0.00 0.00 49 1014.0
20260905181954 93 169 2.0 4.0 0.00 0.00 0.00 48 1014.0
20260905181454 94 163 1.0 2.0 0.00 0.00 0.00 48 1014.0
20260905180955 94 174 3.0 5.0 0.00 0.00 0.00 48 1014.0
20260905180454 94 113 2.0 3.0 0.00 0.00 0.00 50 1014.0
20260905175955 94 151 1.0 2.0 0.00 0.00 0.00 52 1014.0
20260905175454 94 162 2.0 4.0 0.00 0.00 0.00 50 1014.0
20260905174954 93 198 2.0 3.0 0.00 0.00 0.00 51 1014.0
20260905174454 93 151 1.0 4.0 0.00 0.00 0.00 52 1014.0
20260905173955 93 217 2.0 3.0 0.00 0.00 0.00 51 1014.0
20260905173454 92 121 0.0 2.0 0.00 0.00 0.00 52 1014.0
20260905172954 92 187 2.0 4.0 0.00 0.00 0.00 52 1015.0
20260905172454 91 131 2.0 4.0 0.00 0.00 0.00 52 1015.0
20260905171954 91 78 2.0 3.0 0.00 0.00 0.00 56 1015.0
20260905171454 90 175 3.0 6.0 0.00 0.00 0.00 55 1015.0
20260905170955 91 273 1.0 2.0 0.00 0.00 0.00 57 1015.0
20260905170454 90 218 2.0 4.0 0.00 0.00 0.00 56 1015.0
20260905165954 91 175 3.0 5.0 0.00 0.00 0.00 56 1015.0
20260905165454 90 106 2.0 4.0 0.00 0.00 0.00 57 1015.0
20260905164954 90 185 2.0 5.0 0.00 0.00 0.00 56 1015.0
20260905164454 90 102 1.0 2.0 0.00 0.00 0.00 57 1015.0
20260905163954 90 183 3.0 5.0 0.00 0.00 0.00 59 1015.0
20260905163454 90 185 4.0 7.0 0.00 0.00 0.00 59 1015.0
20260905162954 89 191 2.0 5.0 0.00 0.00 0.00 61 1015.0
20260905162454 89 192 2.0 4.0 0.00 0.00 0.00 61 1015.0
20260905161954 89 131 2.0 3.0 0.00 0.00 0.00 61 1015.0
20260905161454 89 193 3.0 6.0 0.00 0.00 0.00 63 1015.0
20260905160954 89 184 4.0 7.0 0.00 0.00 0.00 63 1015.0
20260905160454 89 177 4.0 6.0 0.00 0.00 0.00 63 1015.0
20260905155954 89 177 4.0 7.0 0.00 0.00 0.00 62 1015.0
20260905155454 89 140 1.0 2.0 0.00 0.00 0.00 64 1015.0
20260905154956 88 181 2.0 3.0 0.00 0.00 0.00 65 1015.0
20260905154454 88 168 1.0 3.0 0.00 0.00 0.00 65 1015.0
20260905153955 87 188 2.0 4.0 0.00 0.00 0.00 69 1015.0
20260905153454 87 170 2.0 4.0 0.00 0.00 0.00 68 1015.0
20260905152955 87 194 3.0 4.0 0.00 0.00 0.00 70 1015.0
20260905152454 86 164 2.0 3.0 0.00 0.00 0.00 71 1015.0
20260905151955 86 184 4.0 6.0 0.00 0.00 0.00 71 1015.0
20260905151454 86 183 2.0 3.0 0.00 0.00 0.00 73 1015.0
20260905150954 85 266 0.0 2.0 0.00 0.00 0.00 74 1015.0
20260905150454 85 214 2.0 4.0 0.00 0.00 0.00 75 1015.0
20260905145954 85 140 1.0 4.0 0.00 0.00 0.00 75 1015.0
20260905145455 84 167 2.0 4.0 0.00 0.00 0.00 76 1015.0
20260905144954 84 184 2.0 3.0 0.00 0.00 0.00 77 1015.0
20260905144454 84 185 2.0 4.0 0.00 0.00 0.00 79 1015.0
20260905143956 83 213 2.0 4.0 0.00 0.00 0.00 79 1015.0
20260905143454 83 178 3.0 4.0 0.00 0.00 0.00 80 1015.0
20260905142954 83 220 1.0 2.0 0.00 0.00 0.00 82 1015.0
20260905142454 82 143 2.0 4.0 0.00 0.00 0.00 83 1015.0
20260905141954 82 184 3.0 5.0 0.00 0.00 0.00 83 1015.0
20260905141455 82 211 1.0 2.0 0.00 0.00 0.00 85 1015.0
20260905140954 81 190 2.0 4.0 0.00 0.00 0.00 86 1015.0
20260905140454 81 172 2.0 4.0 0.00 0.00 0.00 87 1015.0
20260905135954 80 196 2.0 4.0 0.00 0.00 0.00 88 1015.0
20260905135455 80 160 1.0 2.0 0.00 0.00 0.00 89 1015.0
20260905134954 80 203 2.0 3.0 0.00 0.00 0.00 90 1015.0
20260905134454 79 187 2.0 3.0 0.00 0.00 0.00 91 1015.0
20260905133955 79 196 1.0 2.0 0.00 0.00 0.00 92 1015.0
20260905133454 79 198 2.0 3.0 0.00 0.00 0.00 92 1015.0
20260905132956 78 188 1.0 2.0 0.00 0.00 0.00 93 1015.0
20260905132455 78 192 1.0 2.0 0.00 0.00 0.00 93 1015.0
20260905131954 78 78 1.0 2.0 0.00 0.00 0.00 94 1015.0
20260905131454 78 106 1.0 2.0 0.00 0.00 0.00 94 1015.0
20260905130954 77 64 1.0 2.0 0.00 0.00 0.00 94 1015.0
20260905130454 77 35 1.0 3.0 0.00 0.00 0.00 94 1015.0
20260905125954 77 181 0.0 2.0 0.00 0.00 0.00 95 1014.0
20260905125455 77 90 0.0 2.0 0.00 0.00 0.00 95 1014.0
20260905124954 76 143 0.0 1.0 0.00 0.00 0.00 95 1014.0
20260905124454 76 52 0.0 1.0 0.00 0.00 0.00 95 1014.0
20260905123955 76 61 0.0 1.0 0.00 0.00 0.00 95 1014.0
20260905123454 76 60 0.0 1.0 0.00 0.00 0.00 95 1014.0
20260905122954 76 332 0.0 1.0 0.00 0.00 0.00 95 1014.0
20260905122454 76 193 1.0 2.0 0.00 0.00 0.00 95 1014.0
20260905121954 76 144 0.0 1.0 0.00 0.00 0.00 95 1014.0
20260905121455 76 133 0.0 1.0 0.00 0.00 0.00 94 1014.0
20260905120954 76 59 0.0 1.0 0.00 0.00 0.00 94 1014.0
20260905120454 76 46 0.0 1.0 0.00 0.00 0.00 94 1014.0
20260905115954 76 82 0.0 1.0 0.00 0.00 0.00 94 1014.0
20260905115455 76 349 0.0 1.0 0.00 0.00 0.00 94 1014.0
20260905114955 76 352 1.0 2.0 0.00 0.00 0.00 94 1014.0
20260905114455 76 357 0.0 1.0 0.00 0.00 0.00 94 1014.0
20260905113954 76 27 0.0 1.0 0.00 0.00 0.00 94 1014.0
20260905113454 76 50 0.0 1.0 0.00 0.00 0.00 94 1014.0
20260905112954 76 94 0.0 1.0 0.00 0.00 0.00 94 1014.0
20260905112454 76 360 0.0 0.0 0.00 0.00 0.00 94 1014.0
20260905111954 76 360 0.0 0.0 0.00 0.00 0.00 94 1014.0
20260905111454 76 74 0.0 0.0 0.00 0.00 0.00 94 1014.0
20260905110954 76 314 0.0 1.0 0.00 0.00 0.00 94 1014.0
20260905110454 76 119 0.0 1.0 0.00 0.00 0.00 94 1014.0
20260905105954 76 360 0.0 0.0 0.00 0.00 0.00 93 1014.0
20260905105454 76 347 0.0 1.0 0.00 0.00 0.00 93 1014.0
20260905104954 76 43 0.0 1.0 0.00 0.00 0.00 93 1014.0
20260905104454 76 357 0.0 0.0 0.00 0.00 0.00 93 1014.0
20260905103954 76 28 0.0 1.0 0.00 0.00 0.00 93 1014.0
20260905103456 76 39 0.0 2.0 0.00 0.00 0.00 92 1014.0
20260905102954 76 356 0.0 1.0 0.00 0.00 0.00 92 1014.0
20260905102454 77 253 0.0 1.0 0.00 0.00 0.00 92 1014.0
20260905101954 77 26 0.0 1.0 0.00 0.00 0.00 92 1014.0
20260905101454 77 258 0.0 1.0 0.00 0.00 0.00 91 1014.0
20260905100954 77 78 0.0 1.0 0.00 0.00 0.00 91 1014.0
20260905100454 77 215 0.0 1.0 0.00 0.00 0.00 91 1013.0
20260905095955 77 334 0.0 0.0 0.00 0.00 0.00 91 1013.0
20260905095454 77 95 0.0 0.0 0.00 0.00 0.00 91 1013.0
20260905094954 77 72 0.0 1.0 0.00 0.00 0.00 91 1014.0
20260905094454 77 354 0.0 1.0 0.00 0.00 0.00 90 1013.0
20260905093954 77 49 0.0 1.0 0.00 0.00 0.00 90 1013.0
20260905093454 78 232 0.0 1.0 0.00 0.00 0.00 90 1014.0
20260905092954 78 341 0.0 1.0 0.00 0.00 0.00 90 1014.0
20260905092454 78 161 0.0 1.0 0.00 0.00 0.00 89 1014.0
20260905091954 78 278 0.0 2.0 0.00 0.00 0.00 89 1014.0
20260905091454 78 114 0.0 1.0 0.00 0.00 0.00 89 1014.0
20260905090954 78 209 1.0 2.0 0.00 0.00 0.00 88 1014.0
20260905090457 78 187 1.0 2.0 0.00 0.00 0.00 88 1014.0
20260905085954 78 211 1.0 2.0 0.00 0.00 0.00 88 1014.0
20260905085455 78 189 2.0 4.0 0.00 0.00 0.00 88 1014.0
20260905084954 78 177 2.0 3.0 0.00 0.00 0.00 88 1014.0
20260905084454 78 187 2.0 3.0 0.00 0.00 0.00 88 1014.0
20260905083954 78 177 2.0 3.0 0.00 0.00 0.00 88 1014.0
20260905083454 78 183 3.0 4.0 0.00 0.00 0.00 88 1014.0
20260905082954 78 170 2.0 5.0 0.00 0.00 0.00 88 1014.0
20260905082454 78 230 1.0 2.0 0.00 0.00 0.00 88 1014.0
20260905081954 78 199 2.0 3.0 0.00 0.00 0.00 88 1014.0
20260905081454 78 167 2.0 4.0 0.00 0.00 0.00 88 1014.0
20260905081004 78 200 1.0 2.0 0.00 0.00 0.00 88 1014.0
20260905080454 78 192 3.0 4.0 0.00 0.00 0.00 88 1014.0
20260905075955 78 201 1.0 2.0 0.00 0.00 0.00 87 1014.0
20260905075454 78 46 0.0 2.0 0.00 0.00 0.00 87 1014.0
20260905074955 78 183 2.0 5.0 0.00 0.00 0.00 87 1014.0
20260905074454 78 39 1.0 3.0 0.00 0.00 0.00 86 1014.0
20260905073954 78 141 1.0 2.0 0.00 0.00 0.00 86 1014.0
20260905073454 78 162 2.0 3.0 0.00 0.00 0.00 86 1014.0
20260905072955 78 175 0.0 1.0 0.00 0.00 0.00 85 1014.0
20260905072455 79 182 1.0 2.0 0.00 0.00 0.00 85 1014.0
20260905071954 79 187 1.0 2.0 0.00 0.00 0.00 85 1014.0
20260905071454 79 221 1.0 2.0 0.00 0.00 0.00 84 1014.0
20260905070953 79 57 0.0 2.0 0.00 0.00 0.00 84 1014.0
20260905070454 79 171 1.0 2.0 0.00 0.00 0.00 83 1014.0
20260905065954 79 201 1.0 3.0 0.00 0.00 0.00 83 1014.0
20260905065454 79 191 3.0 5.0 0.00 0.00 0.00 83 1014.0
20260905064954 79 194 2.0 3.0 0.00 0.00 0.00 83 1014.0
20260905064454 79 163 1.0 1.0 0.00 0.00 0.00 83 1014.0
20260905063955 79 225 0.0 1.0 0.00 0.00 0.00 82 1014.0
20260905063454 79 175 1.0 2.0 0.00 0.00 0.00 82 1014.0
20260905062954 79 200 2.0 3.0 0.00 0.00 0.00 82 1014.0
20260905062454 79 165 1.0 2.0 0.00 0.00 0.00 82 1014.0
20260905061954 80 203 1.0 1.0 0.00 0.00 0.00 81 1014.0
20260905061454 80 324 0.0 2.0 0.00 0.00 0.00 81 1014.0
20260905060954 80 184 1.0 3.0 0.00 0.00 0.00 81 1014.0
20260905060455 80 161 1.0 2.0 0.00 0.00 0.00 80 1014.0
20260905055955 80 56 1.0 4.0 0.00 0.00 0.00 80 1014.0
20260905055454 80 96 1.0 2.0 0.00 0.00 0.00 80 1014.0
20260905054954 80 331 1.0 2.0 0.00 0.00 0.00 80 1014.0
20260905054454 80 233 1.0 2.0 0.00 0.00 0.00 79 1014.0
20260905053954 80 58 2.0 5.0 0.00 0.00 0.00 79 1014.0
20260905053454 80 198 1.0 2.0 0.00 0.00 0.00 79 1014.0
20260905052954 80 79 1.0 2.0 0.00 0.00 0.00 79 1014.0
20260905052454 80 137 1.0 2.0 0.00 0.00 0.00 79 1014.0
20260905051954 80 88 1.0 4.0 0.00 0.00 0.00 79 1014.0
20260905051454 80 338 1.0 2.0 0.00 0.00 0.00 78 1014.0
20260905050954 80 354 1.0 2.0 0.00 0.00 0.00 78 1014.0
20260905050454 80 336 1.0 2.0 0.00 0.00 0.00 78 1014.0
20260905045954 80 209 2.0 4.0 0.00 0.00 0.32 79 1014.0
20260905045454 80 275 1.0 2.0 0.00 0.00 0.32 80 1014.0
20260905044955 80 302 1.0 2.0 0.00 0.00 0.32 80 1014.0
20260905044454 80 266 1.0 1.0 0.00 0.00 0.32 80 1014.0
20260905043954 80 217 1.0 1.0 0.00 0.00 0.32 80 1014.0
20260905043454 80 73 1.0 2.0 0.00 0.00 0.32 79 1014.0
20260905042954 80 340 1.0 2.0 0.00 0.00 0.32 79 1014.0
20260905042454 80 13 0.0 1.0 0.00 0.00 0.32 80 1014.0
20260905041954 80 306 1.0 2.0 0.00 0.00 0.32 80 1014.0
20260905041454 80 321 1.0 3.0 0.00 0.00 0.32 81 1014.0
20260905040956 80 314 0.0 1.0 0.00 0.00 0.32 80 1014.0
20260905040454 80 312 1.0 2.0 0.00 0.00 0.32 81 1014.0
20260905035954 80 337 1.0 1.0 0.00 0.00 0.32 81 1014.0
20260905035454 80 7 1.0 2.0 0.00 0.00 0.32 81 1014.0
20260905034954 80 339 1.0 2.0 0.00 0.00 0.32 82 1014.0
20260905034454 80 355 1.0 2.0 0.00 0.00 0.32 82 1014.0
20260905033954 80 330 1.0 2.0 0.00 0.00 0.32 81 1014.0
20260905033454 80 1 1.0 1.0 0.00 0.00 0.32 81 1014.0
20260905032955 80 36 0.0 2.0 0.00 0.00 0.32 81 1014.0
20260905032454 80 50 1.0 2.0 0.00 0.00 0.32 81 1014.0
20260905031954 80 332 1.0 2.0 0.00 0.00 0.32 81 1014.0
20260905031454 81 350 0.0 1.0 0.00 0.00 0.32 81 1014.0
20260905030954 81 60 1.0 2.0 0.00 0.00 0.32 80 1014.0
20260905030454 81 64 0.0 1.0 0.00 0.00 0.32 80 1014.0
20260905025954 81 53 1.0 1.0 0.00 0.00 0.32 79 1014.0
20260905025455 81 79 0.0 1.0 0.00 0.00 0.32 79 1014.0
20260905024954 81 96 0.0 2.0 0.00 0.00 0.32 78 1014.0
20260905024454 82 75 1.0 2.0 0.00 0.00 0.32 78 1014.0
20260905023955 81 52 0.0 1.0 0.00 0.00 0.32 78 1014.0
20260905023454 81 98 1.0 1.0 0.00 0.00 0.32 79 1014.0
20260905022955 81 46 1.0 1.0 0.00 0.00 0.32 79 1014.0
20260905022454 81 49 0.0 1.0 0.00 0.00 0.32 79 1014.0
20260905021954 81 60 0.0 1.0 0.00 0.00 0.32 79 1014.0
20260905021454 81 55 0.0 1.0 0.00 0.00 0.32 80 1014.0
20260905020955 81 25 0.0 2.0 0.00 0.00 0.32 80 1013.0
20260905020454 81 76 1.0 1.0 0.00 0.00 0.32 80 1013.0
20260905015954 81 81 1.0 1.0 0.00 0.00 0.32 79 1013.0
20260905015454 81 82 0.0 1.0 0.00 0.00 0.32 80 1013.0
20260905014954 81 63 0.0 2.0 0.00 0.00 0.32 81 1013.0
20260905014454 81 83 1.0 2.0 0.00 0.00 0.32 82 1013.0
20260905013954 81 63 0.0 1.0 0.00 0.00 0.32 82 1013.0
20260905013454 81 97 0.0 2.0 0.00 0.00 0.32 83 1013.0
20260905012954 81 81 0.0 0.0 0.00 0.00 0.32 83 1013.0
20260905012454 81 29 0.0 1.0 0.00 0.00 0.32 83 1013.0
20260905011956 81 42 0.0 2.0 0.00 0.00 0.32 82 1013.0